Trinidad, CO

9:12 PM MST on February 12, 2016 (GMT -0700)
Stokes

Weather History for KTAD - June, 2012

Change the Weather History Date:

Monday, June 11, 2012

  Actual Average Record
Temperature  
Mean Temperature 63 °F 67 °F  
Max Temperature 79 °F 83 °F 101 °F (2013)
Min Temperature 46 °F 52 °F 36 °F (1975)
Degree Days  
Heating Degree Days 2 2  
Month to date heating degree days 2 27  
Since 1 June heating degree days 2 27  
Since 1 July heating degree days 4735 5522  
Cooling Degree Days 0 4  
Month to date cooling degree days 68 32  
Year to date cooling degree days 114 60  
Since 1 June cooling degree days 68 32  
Growing Degree Days 12 (Base 50)    
Moisture  
Dew Point 34 °F    
Average Humidity 41    
Maximum Humidity 65    
Minimum Humidity 16    
Precipitation  
Precipitation T in 0.05 in 0.50 in (1977)
Month to date precipitation 0.01 0.56  
Year to date precipitation 5.08  
Snow  
Snow 0.00 in - - ()
Month to date snowfall 0.0  
Since 1 June snowfall 0.0  
Snow Depth 0.00 in    
Sea Level Pressure  
Sea Level Pressure 29.97 in    
Wind  
Wind Speed 13 mph (South)    
Max Wind Speed 30 mph    
Max Gust Speed 39 mph    
Visibility 10 miles    
Events Rain    
T = Trace of Precipitation, MM = Missing Value Source: NWS Daily Summary

Daily Weather History Graph

Daily Weather History Graph

Search for Another Location

Airport or City:

Trip Planner

Search our weather history database for the weather conditions in past years. The results will help you decide how hot, cold, wet, or windy it might be!

Date:

Astronomy

Jun. 11, 2012 Rise Set
Actual Time 5:36 AM MDT 8:18 PM MDT
Civil Twilight 5:05 AM MDT 8:48 PM MDT
Nautical Twilight 4:27 AM MDT 9:27 PM MDT
Astronomical Twilight 3:43 AM MDT 10:10 PM MDT
Moon 12:48 AM MDT (6/11) 1:18 PM MDT (6/11)
Length of Visible Light 15h 43m
Length of Day
14h 41m
Waning Gibbous, 47% of the Moon is Illuminated
Jun 11
Waning Gibbous
Jun 19
New
Jun 26
First Quarter
Jul 3
Full
Jul 10
Last Quarter

Hourly Weather History & Observations

Time (MDT) Temp. Dew Point Humidity Pressure Visibility Wind Dir Wind Speed Gust Speed Precip Events Conditions
12:54 AM 57.9 °F 41.0 °F 53% 29.84 in 10.0 mi Calm Calm - N/A   Clear
1:54 AM 55.9 °F 39.0 °F 53% 29.85 in 10.0 mi WNW 12.7 mph - N/A   Clear
2:54 AM 55.0 °F 37.0 °F 51% 29.88 in 10.0 mi WNW 12.7 mph - N/A   Clear
3:54 AM 53.1 °F 37.0 °F 55% 29.90 in 10.0 mi West 10.4 mph - N/A   Clear
4:54 AM 48.0 °F 35.1 °F 61% 29.93 in 10.0 mi West 6.9 mph - N/A   Clear
5:54 AM 46.9 °F 35.1 °F 63% 29.98 in 10.0 mi West 8.1 mph - N/A   Clear
6:54 AM 53.1 °F 37.0 °F 55% 30.00 in 10.0 mi West 4.6 mph - N/A   Clear
7:54 AM 61.0 °F 37.9 °F 42% 30.01 in 10.0 mi NNW 4.6 mph - N/A   Clear
8:54 AM 64.9 °F 39.0 °F 39% 30.03 in 10.0 mi WNW 8.1 mph - N/A   Clear
9:54 AM 66.9 °F 39.9 °F 37% 30.04 in 10.0 mi Variable 3.5 mph - N/A   Clear
10:54 AM 70.0 °F 41.0 °F 35% 30.03 in 10.0 mi Variable 5.8 mph - N/A   Clear
11:54 AM 73.0 °F 37.0 °F 27% 30.01 in 10.0 mi ESE 11.5 mph 16.1 mph N/A   Clear
12:54 PM 73.9 °F 36.0 °F 25% 30.01 in 10.0 mi East 8.1 mph - N/A   Clear
1:54 PM 78.1 °F 32.0 °F 19% 29.99 in 10.0 mi ESE 16.1 mph 19.6 mph N/A   Clear
2:54 PM 75.0 °F 30.9 °F 20% 29.99 in 10.0 mi SE 15.0 mph - N/A   Overcast
3:54 PM 77.0 °F 30.9 °F 19% 29.99 in 10.0 mi East 10.4 mph 31.1 mph 0.00 in Rain Light Rain
4:54 PM 77.0 °F 30.9 °F 19% 29.99 in 10.0 mi South 15.0 mph - 0.00 in   Scattered Clouds
5:54 PM 78.1 °F 28.9 °F 17% 29.96 in 10.0 mi SE 23.0 mph 31.1 mph N/A   Partly Cloudy
6:54 PM 75.9 °F 28.9 °F 18% 29.96 in 10.0 mi SSE 19.6 mph 25.3 mph N/A   Clear
7:54 PM 75.0 °F 30.0 °F 19% 29.93 in 10.0 mi SSE 25.3 mph 31.1 mph N/A   Partly Cloudy
8:54 PM 73.0 °F 30.9 °F 21% 29.93 in 10.0 mi SSE 26.5 mph 31.1 mph N/A   Scattered Clouds
9:54 PM 70.0 °F 30.0 °F 23% 29.96 in 10.0 mi SSE 25.3 mph 36.8 mph N/A   Clear
10:54 PM 66.9 °F 30.0 °F 25% 29.98 in 10.0 mi SE 12.7 mph 20.7 mph N/A   Clear
11:54 PM 68.0 °F 30.0 °F 24% 29.98 in 10.0 mi Variable 4.6 mph - N/A   Clear